Regional Weather Roundup
Issued by NWS New Orleans/Baton Rouge, LA

Home | Current Version | Previous Version | Text Only | Print | Product List | Glossary Off
Versions: 1 2 3 4 5 6 7 8 9 10 11 12 13 14 15 16 17 18 19 20 21 22 23 24 25 26 27 28 29 30 31 32 33 34 35 36 37 38 39 40 41 42 43 44 45 46 47 48 49 50

035
ASUS44 KLIX 262101
RWRLIX
NEW ORLEANS REGIONAL WEATHER ROUNDUP
NATIONAL WEATHER SERVICE NEW ORLEANS LA
300 PM CST WED NOV 26 2014

NOTE: "FAIR" INDICATES FEW OR NO CLOUDS BELOW 12,000 FEET WITH NO
      SIGNIFICANT WEATHER AND/OR OBSTRUCTIONS TO VISIBILITY.
      SKY/WX - SKY CONDITION AND SIGNIFICANT WEATHER.
      TMP - AIR TEMPERATURE.     DP    - DEWPOINT TEMPERATURE.
      RH  - RELATIVE HUMIDITY.   PRES  - PRESSURE.
      HI  - HEAT INDEX.          WCI   - WIND CHILL INDEX.

*  THESE STATIONS ARE NOT NWS OR FAA STATIONS AND ARE NOT UNDER
   NWS QUALITY CONTROL.

LAZ038-040-048-061>063-065>067-069-262200-
SOUTHEAST LOUISIANA

CITY           SKY/WX    TMP DP  RH WIND       PRES   REMARKS
N.O. AUDUBON     N/A     68  39  35 MISG        N/A
N.O. INTL ARPT MOSUNNY   69  35  28 SW15G22   30.18F
N.O. LAKEFRONT SUNNY     66  39  37 W20       30.18F
N.O. DOWNTOWN*   N/A     68  36  30 W7        30.19F
SLIDELL        SUNNY     65  34  31 S12       30.17F
BATON ROUGE    SUNNY     70  34  26 W17G25    30.15S
BOOTHVILLE     SUNNY     61  45  55 SW10      30.23S
BELLE CHASSE   SUNNY     68  33  27 SW14G21   30.18F
BOGALUSA*        N/A     66  34  30 S9        30.16S
NEW ROADS*     NOT AVBL
GONZALES*      NOT AVBL
HAMMOND*       NOT AVBL
HOUMA*         NOT AVBL
PORT FOURCHON* CLEAR     64  37  36 W10G16    30.26S

$$

MSZ070-080>082-262200-
SOUTHERN MISSISSIPPI

CITY           SKY/WX    TMP DP  RH WIND       PRES   REMARKS
MCCOMB         SUNNY     67  35  30 SW14G25   30.12S
GULFPORT       SUNNY     57  39  51 S7        30.18F
BILOXI         SUNNY     57  38  49 SW9       30.18F
PASCAGOULA     SUNNY     58  33  39 SW7       30.18F
STENNIS ARPT*  SUNNY     63  30  29 S10       30.18F

$$

COASTAL OBSERVATIONS
LAKE AND NEARSHORE STATIONS

STATION/POSITION TIME  TEMP    WIND        PRES    WAVE
                       AIR SEA DIR/SP/G            HT/PER
                 (UTC) (F)     (DEG/KT/KT) (MB)    (FT/S)
PASCAGOULA       2000   57     230/  8/ 11 1022.1
WAVELAND YACHT   2000   56     200/  9/ 12 1021.4
GRAND ISLE       2000   63 60  260/ 11/ 13 1023.9
SOUTHWEST PASS   2000   65                 1023.9
NEW CANAL        2000   66 56  260/ 12/ 16 1022.2
SHELL BEACH      2000   61 53  200/ 12/ 16 1022.5

OFFSHORE STATIONS

STATION/POSITION TIME  TEMP    WIND        PRES    WAVE
                       AIR SEA DIR/SP/G            HT/PER
                 (UTC) (F)     (DEG/KT/KT) (MB)    (FT/S)
64 S DAUPHIN ISL 2010   61 71  290/ 10/ 12 1023.7    2/ 4

$$




USA.gov is the U.S. government's official web portal to all federal, state and local government web resources and services.